Content
SEND FEEDBACK

Daily
Averages
Monthly
Summary
France

MIRECOURT, FRANCE


Home > Europe > France
Elevation: 1083 feet     Latitude: 48 19N     Longitude: 006 04E

WEATHER
 
SELECT A DAY
Number of Records: 201,995;   Date Range: 7/1/96 - 9/15/14
 
SHARE

PRINT THIS DATA

[ ← Previous Day ]
WEATHER ALMANAC - FEBRUARY 13, 2013
[ Next Day → ]
[ °C ]   °F
Weather ElementAverageHighLow
Temperature26.8 °F32 °F (12:00 pm)21.2 °F (10:30 pm)
Dewpoint17 °F19.4 °F (12:30 am)14 °F (12:00 pm)
Humidity66.4 %80 % (1:00 am)39 % (1:00 pm)
Barometer30.16 in30.32 in (7:00 pm)30.01 in (12:30 am)
Wind Speed4.5 mph9.2 mph (6:30 pm)
Weather ElementAverage
Visibility6.3 mi
Wind DirectionE (88.6 °)

Weather ElementTotal
Precipitation---
Heating Degree Days38.4 (Base 65)
Averaged from 51 records on February 13, 2013
WEATHER CONDITIONS BREAKOUT
WIND DIRECTION BREAKOUT
WEATHER BY HOUR - FEBRUARY 13, 2013
[ °C ]   °F
Local TimeTemperatureDewpointHumidityBarometerVisibilityWind DirectionWind SpeedGust SpeedPrecipitationEventsConditions
12:30 AM26.6 °F19.4 °F74 %30.01 in6.2 miNNW (340°)3.5 mphOvercast
1:00 AM26.0 °F19.0 °F64 %30.11 in7.0 miNorth (10°)3.5 mphClear
1:00 AM24.8 °F19.4 °F80 %30.04 in6.2 miNorth (10°)3.5 mphOvercast
1:30 AM24.8 °F19.4 °F80 %30.04 in6.2 miNE (40°)4.6 mphOvercast
2:00 AM24.8 °F19.4 °F80 %30.04 in6.2 miNNE (30°)3.5 mphOvercast
2:30 AM24.8 °F19.4 °F80 %30.04 in6.2 miNorth (10°)4.6 mphOvercast
3:00 AM24.8 °F19.4 °F80 %30.04 in6.2 miNorth (360°)4.6 mphOvercast
3:30 AM24.8 °F19.4 °F80 %30.04 in6.2 miNorth (360°)4.6 mphOvercast
4:00 AM24.8 °F19.4 °F80 %30.04 in6.2 miNorth (10°)3.5 mphOvercast
4:30 AM24.8 °F19.4 °F80 %30.06 in6.2 miNorth (10°)3.5 mphOvercast
5:00 AM24.8 °F19.4 °F80 %30.06 in6.2 miNorth (360°)3.5 mphOvercast
5:30 AM24.8 °F19.4 °F80 %30.06 in6.2 miCalmOvercast
6:00 AM24.8 °F19.4 °F80 %30.09 in6.2 miVariable3.5 mphOvercast
6:30 AM24.8 °F17.6 °F74 %30.09 in6.2 miVariable2.3 mphOvercast
7:00 AM24.0 °F18.0 °F71 %30.20 in6.0 miNorth3.5 mphClear
7:00 AM24.8 °F19.4 °F80 %30.09 in6.2 miNorth (360°)3.5 mphOvercast
7:30 AM24.8 °F17.6 °F74 %30.12 in6.2 miVariable2.3 mphOvercast
8:00 AM24.8 °F17.6 °F74 %30.12 in6.2 miNE (50°)2.3 mphOvercast
8:30 AM24.8 °F17.6 °F74 %30.12 in6.2 miVariable2.3 mphOvercast
9:00 AM24.8 °F15.8 °F69 %30.15 in6.2 miVariable2.3 mphOvercast
9:30 AM26.6 °F15.8 °F64 %30.15 in6.2 miVariable2.3 mphOvercast
10:00 AM26.6 °F15.8 °F64 %30.15 in6.2 miNNE (30°)4.6 mphOvercast
10:30 AM26.6 °F15.8 °F64 %30.15 in6.2 miVariable3.5 mphMostly Cloudy
11:00 AM28.4 °F15.8 °F59 %30.18 in6.2 miEast (90°)4.6 mphOvercast
11:30 AM28.4 °F15.8 °F59 %30.18 in6.2 miNE (40°)4.6 mphOvercast
12:00 PM32.0 °F14.0 °F48 %30.18 in6.2 miNNE (30°)5.8 mphMostly Cloudy
12:30 PM32.0 °F15.8 °F51 %30.18 in6.2 miNE (40°)4.6 mphMostly Cloudy
1:00 PM31.0 °F15.0 °F39 %30.25 in9.0 miEast (90°)3.5 mphClear
1:00 PM32.0 °F15.8 °F51 %30.18 in6.2 miVariable3.5 mphOvercast
1:30 PM30.2 °F15.8 °F55 %30.18 in6.2 miESE (120°)6.9 mphOvercast
2:00 PM30.2 °F15.8 °F55 %30.18 in6.2 miEast (100°)8.1 mphOvercast
2:30 PM30.2 °F15.8 °F55 %30.18 in6.2 miSE (130°)5.8 mphMostly Cloudy
3:00 PM32.0 °F15.8 °F51 %30.18 in6.2 miESE (110°)6.9 mphMostly Cloudy
3:30 PM30.2 °F15.8 °F55 %30.18 in6.2 miEast (90°)6.9 mphOvercast
4:00 PM30.2 °F15.8 °F55 %30.21 in6.2 miEast (90°)8.1 mphOvercast
4:30 PM30.2 °F15.8 °F55 %30.21 in6.2 miEast (100°)6.9 mphMostly Cloudy
5:00 PM30.2 °F15.8 °F55 %30.21 in6.2 miEast (90°)5.8 mphOvercast
5:30 PM28.4 °F15.8 °F59 %30.21 in6.2 miEast (100°)5.8 mphOvercast
6:00 PM28.4 °F15.8 °F59 %30.21 in6.2 miENE (70°)4.6 mphOvercast
6:30 PM28.4 °F15.8 °F59 %30.24 in6.2 miEast (100°)9.2 mphOvercast
7:00 PM29.0 °F17.0 °F48 %30.32 in7.0 miEast (100°)5.8 mphClear
7:00 PM28.4 °F17.6 °F64 %30.24 in6.2 miEast (100°)5.8 mphOvercast
7:30 PM28.4 °F17.6 °F64 %30.24 in6.2 miEast (90°)4.6 mphMostly Cloudy
8:00 PM28.4 °F17.6 °F64 %30.24 in6.2 miEast (100°)5.8 mphOvercast
8:30 PM26.6 °F15.8 °F64 %30.24 in6.2 miESE (120°)5.8 mphOvercast
9:00 PM26.6 °F15.8 °F64 %30.24 in6.2 miESE (110°)3.5 mphScattered Clouds
9:30 PM24.8 °F15.8 °F69 %30.24 in6.2 miEast (90°)3.5 mph
10:00 PM23.0 °F14.0 °F68 %30.24 in6.2 miEast (80°)4.6 mph
10:30 PM21.2 °F15.8 °F80 %30.24 in6.2 miEast (90°)4.6 mph
11:00 PM21.2 °F15.8 °F80 %30.24 in5.6 miSSE (150°)3.5 mph
11:30 PM21.2 °F14.0 °F74 %30.21 in5.6 miESE (120°)3.5 mph
Hourly data recorded from LFSO, located miles away from Mirecourt, France







STORIES FROM OUR PARTNERS